[[{"header":{"parameterUnit":"m.s-1","parameterCategory":1,"la1":30.2991,"la2":30.254,"lo1":-89.0895,"lo2":-89.0444,"dy":0.0017,"dx":0.0017,"nx":28,"ny":28,"refTime":"2025-05-31T09:00:00:Z","depth":0,"parameterNumber":2,"parameterNumberName":"U-component_of_WINDS"},"data":[0,0,0,0,0,0,0,0,0,0,0,0,0,0,0,0,0,0,0,0,0,0,0,0,0,0,0,0,0,0,0,0,0,0,0,0,0,0,0,0,0,0,0,0,0,0,0,0,0,0,0,0,0,0,0,0,0,0,1.3189,1.3189,0,1.3155,1.3155,1.3154,1.3058,1.3056,1.3053,1.3051,1.3019,1.302,1.3021,0,0,0,0,0,0,0,0,0,0,0,0,0,1.3175,1.3176,1.3189,1.3189,1.3189,1.3155,1.3155,1.3154,1.3058,1.3055,1.3053,1.3051,1.3018,1.302,1.3021,0,0,0,0,0,0,0,0,0,0,0,0,0,1.3165,1.3176,1.319,1.3137,1.3131,1.3155,1.3154,1.3154,1.3059,1.3055,1.3052,1.3049,1.3018,1.302,1.3021,1.3094,0,0,1.3026,1.3027,0,0,0,0,0,0,0,0,1.3166,1.3166,1.3145,1.314,1.3135,1.3107,1.3137,1.3134,1.3059,1.3086,1.3051,1.3048,1.3051,1.305,1.305,1.3093,1.3091,1.3026,1.3027,1.3028,1.3028,0,0,0,0,0,0,0,1.3167,1.3167,1.3176,1.3145,1.3138,1.3115,1.3111,1.3136,1.3087,1.3084,1.3077,1.3074,1.3048,1.3049,1.3049,1.3091,1.3026,1.3028,1.3029,1.3029,1.3192,1.3195,0,0,0,0,0,0,1.3174,1.3168,1.3177,1.3175,1.3143,1.3118,1.3113,1.3119,1.3086,1.3078,1.3076,1.3069,1.3048,1.3047,1.3047,1.3131,1.3028,1.3029,1.303,1.3189,1.3193,1.3196,0,0,0,0,0,0,1.3175,1.3176,1.3178,1.3169,1.3168,1.3122,1.313,1.312,1.3121,1.3081,1.3072,1.3087,1.3045,1.3045,1.3083,1.3128,1.303,1.3032,1.3185,1.319,1.3195,1.3299,0,0,0,0,0,0,1.3175,1.3177,1.3203,1.3171,1.3169,1.3214,1.3133,1.3122,1.3124,1.3115,1.3088,1.308,1.3043,1.3081,1.3085,1.3129,1.3033,1.318,1.3187,1.3193,1.3291,1.3307,1.332,0,0,0,0,0,1.3174,1.3234,1.3205,1.3207,1.3201,1.3217,1.3216,1.3171,1.3128,1.3155,1.3129,1.3081,1.3123,1.3086,1.3089,1.3134,1.3177,1.3185,1.3192,1.3284,1.3304,1.332,0,0,0,0,0,0,1.3274,1.3229,1.3196,1.3247,1.3237,1.3201,1.3233,1.3192,1.3194,1.3185,1.3129,1.3124,1.317,1.3156,1.3116,1.3204,1.3142,1.3151,1.3211,1.3229,1.3243,1.3246,1.3034,0,0,0,0,0,1.3302,1.3318,1.3278,1.3327,1.3324,1.328,1.3285,1.3251,1.3238,1.3233,1.321,1.32,1.3211,1.3219,1.3226,1.3288,1.3282,1.3321,1.3336,1.3348,1.3356,1.3388,1.3406,1.3221,1.3221,1.3221,0,0,1.336,1.3338,1.3351,1.3347,1.3335,1.3354,1.3277,1.33,1.3313,1.3237,1.3271,1.3254,1.324,1.329,1.3311,1.328,1.3406,1.3357,1.3367,1.3369,1.3398,1.3416,1.3431,1.3226,1.3225,1.3224,0,0,1.3476,1.346,1.3499,1.3489,1.3471,1.3441,1.3451,1.3421,1.3406,1.344,1.3383,1.3399,1.3419,1.3411,1.3409,1.3523,1.3479,1.3527,1.3603,1.3635,1.365,1.3662,1.3704,1.3719,1.3535,1.3535,1.3536,0,1.355,1.3576,1.3525,1.3552,1.3552,1.3483,1.3523,1.3515,1.3502,1.3504,1.3468,1.3492,1.3477,1.3525,1.3553,1.3554,1.3564,1.353,1.3652,1.3664,1.3675,1.3714,1.3729,1.3541,1.3541,1.354,1.3539,0,1.3669,1.3687,1.3721,1.3709,1.3713,1.3746,1.3702,1.3712,1.3678,1.3653,1.3688,1.3668,1.3671,1.368,1.3647,1.3724,1.3705,1.3661,1.3599,1.3699,1.3735,1.3749,1.355,1.3548,1.3546,1.3544,0,0,1.3846,1.3805,1.3819,1.3812,1.3788,1.3802,1.3833,1.3834,1.3845,1.3838,1.3863,1.3881,1.3841,1.384,1.3805,1.3834,1.3926,1.3787,1.3786,1.3814,1.4011,1.4044,1.4062,1.3897,1.39,1.3902,1.4012,0,1.3955,1.4004,1.396,1.4019,1.4036,1.3971,1.3998,1.3986,1.3964,1.3976,1.3951,1.3965,1.391,1.3909,1.3934,1.391,1.3965,1.3901,1.3921,1.3922,1.3927,1.408,1.4115,1.422,1.4025,1.4028,1.4029,0,1.4089,1.4088,1.4148,1.412,1.4126,1.4151,1.4149,1.4161,1.4147,1.4129,1.4128,1.4086,1.4115,1.4054,1.4094,1.4052,1.4057,1.4046,1.4049,1.405,1.3982,1.4085,1.4252,1.4268,1.4051,1.4049,1.4047,0,1.4213,1.4227,1.4264,1.4261,1.4229,1.4249,1.4237,1.4219,1.4224,1.4223,1.4225,1.4228,1.423,1.4234,1.4194,1.4153,1.424,1.4175,1.4226,1.4228,1.4248,1.4247,1.4419,1.4251,1.4251,1.4251,1.425,0,1.434,1.438,1.432,1.4343,1.4386,1.4335,1.4379,1.436,1.4346,1.4365,1.4309,1.4329,1.4275,1.4289,1.4258,1.4297,1.4298,1.4285,1.4276,1.429,1.4292,1.4293,1.4285,1.4255,1.4254,1.4253,1.4252,0,1.4486,1.4447,1.4484,1.4451,1.4444,1.4477,1.4449,1.447,1.4444,1.4469,1.4472,1.4431,1.4445,1.4406,1.4414,1.4393,1.445,1.4429,1.4454,1.4448,1.4502,1.4498,1.4681,1.4702,1.4521,1.4522,1.4524,0,1.457,1.4599,1.4569,1.4577,1.4568,1.4583,1.4587,1.4538,1.4545,1.4532,1.4555,1.4564,1.4568,1.4594,1.4566,1.4572,1.4551,1.4615,1.4552,1.4565,1.4553,1.4552,1.4555,1.4628,1.4631,1.4632,1.4634,0,1.4723,1.4702,1.471,1.4711,1.4717,1.4716,1.4711,1.4721,1.4669,1.468,1.4693,1.4697,1.4705,1.4715,1.4715,1.4703,1.4661,1.4654,1.4666,1.4681,1.4695,1.4689,1.449,1.465,1.4648,1.4647,1.4646,1.4646,1.484,1.4863,1.4846,1.4856,1.4847,1.4844,1.4862,1.4838,1.4848,1.485,1.4821,1.4841,1.4827,1.4823,1.4816,1.4831,1.4802,1.482,1.4824,1.483,1.4839,1.4692,1.4831,1.483,1.483,1.483,1.4829,0,1.4991,1.4977,1.4987,1.4981,1.499,1.4948,1.494,1.495,1.4968,1.4959,1.4964,1.498,1.499,1.4963,1.4969,1.4987,1.4968,1.499,1.4989,1.4987,1.4864,1.4853,1.5006,1.5006,1.5006,1.5006,1.5006,1.5006,1.507,1.5107,1.5085,1.5117,1.5102,1.512,1.512,1.5117,1.5109,1.5129,1.5137,1.5118,1.5102,1.5107,1.5114,1.5106,1.5111,1.5141,1.5127,1.5013,1.4995,1.4979,1.4968,1.5143,1.5143,1.5248,1.5249,1.5249]},{"header":{"parameterUnit":"m.s-1","parameterCategory":1,"la1":30.2991,"la2":30.254,"lo1":-89.0895,"lo2":-89.0444,"dy":0.0017,"dx":0.0017,"nx":28,"ny":28,"refTime":"2025-05-31T09:00:00:Z","depth":0,"parameterNumber":3,"parameterNumberName":"V-component_of_WINDS"},"data":[0,0,0,0,0,0,0,0,0,0,0,0,0,0,0,0,0,0,0,0,0,0,0,0,0,0,0,0,0,0,0,0,0,0,0,0,0,0,0,0,0,0,0,0,0,0,0,0,0,0,0,0,0,0,0,0,0,0,-1.6019,-1.6019,0,-1.6109,-1.611,-1.6111,-1.6165,-1.6165,-1.6165,-1.6166,-1.6254,-1.6256,-1.6258,0,0,0,0,0,0,0,0,0,0,0,0,0,-1.5888,-1.589,-1.6018,-1.602,-1.6021,-1.6109,-1.611,-1.6111,-1.6165,-1.6165,-1.6165,-1.6166,-1.6253,-1.6256,-1.6258,0,0,0,0,0,0,0,0,0,0,0,0,0,-1.5958,-1.5891,-1.6018,-1.6058,-1.6063,-1.6109,-1.611,-1.6112,-1.6165,-1.6165,-1.6165,-1.6166,-1.6253,-1.6256,-1.6259,-1.6271,0,0,-1.6269,-1.627,0,0,0,0,0,0,0,0,-1.5954,-1.5963,-1.6051,-1.6055,-1.6061,-1.6126,-1.6097,-1.6165,-1.6165,-1.6126,-1.6166,-1.6166,-1.6211,-1.6218,-1.6234,-1.6275,-1.6279,-1.6269,-1.6271,-1.6272,-1.6273,0,0,0,0,0,0,0,-1.5949,-1.5959,-1.6054,-1.6052,-1.6058,-1.607,-1.6081,-1.611,-1.6165,-1.6129,-1.6133,-1.6144,-1.6214,-1.623,-1.6236,-1.628,-1.6269,-1.6272,-1.6274,-1.6275,-1.6336,-1.6336,0,0,0,0,0,0,-1.5938,-1.5955,-1.6051,-1.6057,-1.6007,-1.6072,-1.6084,-1.6105,-1.6165,-1.6175,-1.6143,-1.6146,-1.6225,-1.6232,-1.6239,-1.6258,-1.6272,-1.6275,-1.6277,-1.6337,-1.6336,-1.6336,0,0,0,0,0,0,-1.5935,-1.5947,-1.6048,-1.6007,-1.6021,-1.6074,-1.6097,-1.6106,-1.6123,-1.6176,-1.6185,-1.615,-1.6225,-1.6235,-1.6263,-1.6261,-1.6277,-1.6279,-1.6337,-1.6337,-1.6336,-1.6294,0,0,0,0,0,0,-1.5931,-1.5945,-1.5951,-1.6007,-1.6023,-1.6071,-1.6097,-1.6108,-1.6129,-1.6133,-1.6185,-1.6194,-1.6226,-1.6258,-1.6266,-1.6266,-1.6282,-1.6337,-1.6337,-1.6336,-1.6296,-1.6292,-1.6289,0,0,0,0,0,-1.5927,-1.5935,-1.5951,-1.5962,-1.6032,-1.6071,-1.608,-1.6118,-1.6129,-1.6135,-1.6168,-1.6192,-1.6261,-1.626,-1.627,-1.6271,-1.6338,-1.6337,-1.6336,-1.6297,-1.6293,-1.6289,0,0,0,0,0,0,-1.5875,-1.5943,-1.5962,-1.5988,-1.6023,-1.608,-1.6088,-1.6112,-1.6144,-1.6146,-1.6192,-1.6203,-1.6227,-1.6252,-1.625,-1.6286,-1.6302,-1.6303,-1.6269,-1.6265,-1.6262,-1.6255,-1.6285,0,0,0,0,0,-1.5868,-1.5895,-1.5952,-1.5969,-1.5986,-1.6034,-1.6052,-1.6079,-1.6117,-1.6132,-1.6168,-1.6202,-1.6232,-1.625,-1.628,-1.63,-1.6312,-1.6305,-1.6302,-1.6299,-1.6299,-1.6312,-1.6309,-1.6334,-1.6334,-1.6334,0,0,-1.5851,-1.5891,-1.5905,-1.596,-1.5991,-1.6017,-1.6046,-1.6072,-1.6092,-1.6135,-1.6165,-1.6192,-1.6233,-1.6258,-1.627,-1.6279,-1.6295,-1.6298,-1.6295,-1.6297,-1.6311,-1.6308,-1.6306,-1.6334,-1.6334,-1.6334,0,0,-1.5834,-1.5867,-1.5886,-1.5916,-1.5963,-1.5995,-1.5999,-1.6052,-1.6072,-1.6103,-1.6136,-1.6159,-1.6209,-1.6237,-1.6258,-1.6253,-1.6276,-1.6261,-1.6243,-1.6255,-1.6253,-1.6252,-1.6249,-1.6248,-1.6262,-1.6261,-1.6261,0,-1.5806,-1.5849,-1.5892,-1.5917,-1.594,-1.5982,-1.6001,-1.6028,-1.6081,-1.6095,-1.6105,-1.6169,-1.62,-1.6231,-1.623,-1.6246,-1.6251,-1.6255,-1.625,-1.6249,-1.6248,-1.6246,-1.6245,-1.6259,-1.626,-1.626,-1.626,0,-1.5813,-1.5841,-1.5851,-1.5903,-1.5927,-1.5948,-1.5994,-1.6013,-1.6038,-1.6068,-1.6098,-1.6137,-1.6176,-1.6186,-1.6209,-1.622,-1.6225,-1.6242,-1.6258,-1.6243,-1.6242,-1.6242,-1.6256,-1.6257,-1.6258,-1.6258,0,0,-1.5764,-1.5841,-1.5844,-1.5868,-1.5923,-1.5945,-1.5969,-1.6008,-1.6023,-1.6059,-1.6078,-1.612,-1.6137,-1.616,-1.6188,-1.6198,-1.6191,-1.6214,-1.6216,-1.6208,-1.6205,-1.6191,-1.6189,-1.6207,-1.6207,-1.6207,-1.6201,0,-1.5754,-1.58,-1.584,-1.587,-1.5897,-1.5938,-1.5958,-1.5993,-1.6023,-1.6049,-1.6081,-1.6109,-1.6129,-1.6144,-1.6156,-1.6189,-1.6191,-1.6191,-1.6225,-1.6226,-1.6212,-1.6189,-1.6174,-1.6166,-1.6201,-1.6201,-1.6201,0,-1.5749,-1.5784,-1.5817,-1.587,-1.5883,-1.5901,-1.594,-1.5965,-1.6005,-1.6026,-1.6053,-1.6083,-1.6108,-1.6123,-1.6158,-1.6157,-1.6173,-1.6192,-1.6193,-1.6196,-1.6211,-1.6191,-1.6165,-1.6163,-1.6201,-1.6201,-1.6201,0,-1.5709,-1.5765,-1.5792,-1.5812,-1.5875,-1.5886,-1.5912,-1.5954,-1.5975,-1.6009,-1.6023,-1.6059,-1.6079,-1.6105,-1.6144,-1.6151,-1.6174,-1.6192,-1.6191,-1.619,-1.6193,-1.6192,-1.6168,-1.6205,-1.6205,-1.6205,-1.6205,0,-1.5693,-1.5712,-1.5776,-1.5792,-1.5814,-1.586,-1.5879,-1.5909,-1.5946,-1.5968,-1.6006,-1.6025,-1.6075,-1.6101,-1.6131,-1.6155,-1.6163,-1.618,-1.6187,-1.6176,-1.6174,-1.6186,-1.6188,-1.6205,-1.6205,-1.6205,-1.6205,0,-1.5652,-1.5696,-1.5728,-1.5786,-1.5801,-1.5814,-1.5862,-1.5879,-1.5912,-1.5939,-1.5948,-1.5998,-1.603,-1.6072,-1.6116,-1.6136,-1.6156,-1.6169,-1.6143,-1.6147,-1.6143,-1.6143,-1.6126,-1.6125,-1.6163,-1.6163,-1.6163,0,-1.5638,-1.5654,-1.5714,-1.5732,-1.5758,-1.5787,-1.5809,-1.5855,-1.5877,-1.5925,-1.5936,-1.5971,-1.6002,-1.6051,-1.609,-1.6124,-1.6137,-1.6129,-1.6142,-1.613,-1.6136,-1.6134,-1.6135,-1.6125,-1.6124,-1.6124,-1.6123,0,-1.5609,-1.5631,-1.5662,-1.5702,-1.5728,-1.5761,-1.5795,-1.5808,-1.5861,-1.5883,-1.5917,-1.5941,-1.5988,-1.6022,-1.6061,-1.6087,-1.6113,-1.6119,-1.612,-1.6108,-1.6092,-1.61,-1.6133,-1.6119,-1.6119,-1.612,-1.612,-1.612,-1.5581,-1.5597,-1.5642,-1.5676,-1.5707,-1.5738,-1.5758,-1.5793,-1.5823,-1.5865,-1.589,-1.5923,-1.5964,-1.602,-1.6045,-1.6071,-1.6081,-1.6083,-1.6083,-1.6083,-1.6079,-1.6089,-1.6078,-1.6079,-1.6079,-1.6079,-1.6079,0,-1.5553,-1.5584,-1.5616,-1.5664,-1.569,-1.5715,-1.5755,-1.5775,-1.5804,-1.5841,-1.5871,-1.591,-1.5943,-1.5986,-1.6022,-1.6035,-1.6048,-1.6043,-1.6041,-1.6047,-1.6068,-1.6063,-1.6032,-1.6032,-1.6032,-1.6032,-1.6032,-1.6032,-1.5541,-1.5569,-1.5596,-1.564,-1.5671,-1.5705,-1.5725,-1.5754,-1.5784,-1.5826,-1.5855,-1.5884,-1.5923,-1.5962,-1.5994,-1.6006,-1.6017,-1.6008,-1.6022,-1.6041,-1.6045,-1.6049,-1.6045,-1.601,-1.601,-1.5999,-1.5999,-1.5999]}]]